Clarksburg, WV

1:24 PM EST on January 23, 2018 (GMT -0500)
Benedum

Weather History for KCKB - April, 2014

Change the Weather History Date:

Tuesday, April 8, 2014

  Actual Average Record
Temperature  
Mean Temperature 54 °F 50 °F  
Max Temperature 62 °F 62 °F 84 °F (1954)
Min Temperature 45 °F 38 °F 20 °F (1936)
Degree Days  
Heating Degree Days 10 15  
Month to date heating degree days 130  
Since 1 July heating degree days 4812  
Cooling Degree Days 0 0  
Month to date cooling degree days 0  
Year to date cooling degree days 1  
Growing Degree Days 4 (Base 50)    
Moisture  
Dew Point 37 °F    
Average Humidity 58    
Maximum Humidity 77    
Minimum Humidity 36    
Precipitation  
Precipitation 0.04 in 0.13 in 0.87 in (2015)
Month to date precipitation 0.96  
Year to date precipitation 11.55  
Sea Level Pressure  
Sea Level Pressure 29.61 in    
Wind  
Wind Speed 15 mph (West)    
Max Wind Speed 23 mph    
Max Gust Speed 39 mph    
Visibility 10 miles    
Events Rain    
T = Trace of Precipitation, MM = Missing Value Source: NWS Daily Summary

Daily Weather History Graph

Daily Weather History Graph

Search for Another Location

Airport or City:

Trip Planner

Search our weather history database for the weather conditions in past years. The results will help you decide how hot, cold, wet, or windy it might be!

Date:

Astronomy

Apr. 08, 2014 Rise Set
Actual Time 6:54 AM EDT 7:51 PM EDT
Civil Twilight 6:27 AM EDT 8:19 PM EDT
Nautical Twilight 5:54 AM EDT 8:51 PM EDT
Astronomical Twilight 5:21 AM EDT 9:25 PM EDT
Moon 1:45 PM EDT (4/8) 3:04 AM EDT (4/8)
Length of Visible Light 13h 51m
Length of Day
12h 57m
Waxing Gibbous, 62% of the Moon is Illuminated
Apr 8
Waxing Gibbous
Apr 15
Full
Apr 22
Last Quarter
Apr 29
New
May 6
First Quarter

Hourly Weather History & Observations

Time (EDT) Temp. Windchill Dew Point Humidity Pressure Visibility Wind Dir Wind Speed Gust Speed Precip Events Conditions
12:53 AM 64.0 °F - 50.0 °F 60% 29.40 in 10.0 mi SSW 16.1 mph 25.3 mph N/A   Partly Cloudy
1:27 AM 57.0 °F - 50.0 °F 77% 29.46 in 5.0 mi West 19.6 mph 31.1 mph 0.04 in Rain Light Rain
1:53 AM 57.0 °F - 46.0 °F 67% 29.44 in 10.0 mi West 17.3 mph 39.1 mph 0.04 in   Overcast
2:53 AM 55.0 °F - 45.0 °F 69% 29.44 in 10.0 mi SW 19.6 mph 24.2 mph N/A   Scattered Clouds
3:53 AM 55.9 °F - 44.1 °F 64% 29.45 in 10.0 mi WSW 21.9 mph 28.8 mph N/A   Overcast
4:53 AM 53.1 °F - 39.9 °F 61% 29.49 in 10.0 mi WSW 19.6 mph 34.5 mph N/A   Overcast
5:53 AM 50.0 °F - 37.0 °F 61% 29.53 in 10.0 mi WSW 23.0 mph 36.8 mph N/A   Overcast
6:36 AM 48.9 °F - 37.0 °F 64% 29.58 in 10.0 mi WSW 20.7 mph 36.8 mph 0.00 in   Overcast
6:53 AM 48.0 °F - 37.0 °F 66% 29.57 in 10.0 mi WSW 21.9 mph 32.2 mph 0.00 in   Overcast
7:31 AM 46.9 °F - 37.0 °F 68% 29.62 in 10.0 mi West 20.7 mph 35.7 mph 0.00 in Rain Light Rain
7:53 AM 46.0 °F 39.6 °F 37.0 °F 71% 29.62 in 10.0 mi WSW 15.0 mph 32.2 mph 0.00 in   Overcast
8:53 AM 46.0 °F 39.3 °F 37.0 °F 71% 29.65 in 10.0 mi WSW 16.1 mph 23.0 mph N/A   Overcast
9:53 AM 45.0 °F 38.9 °F 37.9 °F 76% 29.67 in 10.0 mi WSW 12.7 mph - 0.00 in   Overcast
10:53 AM 46.0 °F 41.9 °F 37.9 °F 73% 29.68 in 10.0 mi WSW 8.1 mph - 0.00 in   Overcast
11:53 AM 48.0 °F - 37.9 °F 68% 29.68 in 10.0 mi WSW 13.8 mph - N/A   Overcast
12:53 PM 50.0 °F - 37.0 °F 61% 29.68 in 10.0 mi WSW 16.1 mph 20.7 mph N/A   Overcast
1:53 PM 55.0 °F - 37.9 °F 53% 29.65 in 10.0 mi WNW 10.4 mph - N/A   Mostly Cloudy
2:53 PM 55.0 °F - 37.0 °F 51% 29.65 in 10.0 mi West 11.5 mph - N/A   Mostly Cloudy
3:53 PM 55.0 °F - 35.1 °F 47% 29.64 in 10.0 mi West 9.2 mph - N/A   Overcast
4:53 PM 57.9 °F - 34.0 °F 41% 29.63 in 10.0 mi WSW 12.7 mph - N/A   Mostly Cloudy
5:53 PM 57.9 °F - 32.0 °F 37% 29.65 in 10.0 mi West 4.6 mph - N/A   Partly Cloudy
6:53 PM 57.0 °F - 30.0 °F 36% 29.66 in 10.0 mi WNW 5.8 mph - N/A   Mostly Cloudy
7:53 PM 55.9 °F - 30.0 °F 37% 29.67 in 10.0 mi WNW 3.5 mph - N/A   Overcast
8:53 PM 52.0 °F - 30.0 °F 43% 29.70 in 10.0 mi Calm Calm - N/A   Mostly Cloudy
9:53 PM 50.0 °F - 30.0 °F 46% 29.72 in 10.0 mi Calm Calm - N/A   Mostly Cloudy
10:53 PM 48.0 °F - 30.9 °F 52% 29.73 in 10.0 mi Calm Calm - N/A   Mostly Cloudy
11:53 PM 48.0 °F - 30.0 °F 50% 29.73 in 10.0 mi North 3.5 mph - N/A   Scattered Clouds